User: anonymous   Login
Location: ??? ???
(33.4974°N, 35.4618°E)
Time: 22:02:46
(UTC+00:00)
Language:

Meteor 2-15 - Orbit

View from above orbital plane
View from above orbital plane
View from above satellite
View from above satellite

Ground track
Ground track

The orbit data is extracted from the following two-line orbital elements,

1 17290U 87001A   21016.55003919  .00000051  00000-0  32114-4 0  9998
2 17290  82.4657 246.0660 0012528 326.5568  33.4800 13.85053091720057
Epoch (UTC): 16 January 2021 13:12:03
Eccentricity: 0.0012528
inclination: 82.4657°
perigee height: 937 km
apogee height: 955 km
right ascension of ascending node: 246.0660°
argument of perigee: 326.5568°
revolutions per day: 13.85053091
mean anomaly at epoch: 33.4800°
orbit number at epoch: 72005

The dashed part of the orbit path shows where the satellite is in the earth's shadow,  

DLR